Date,TemperatureHighF,TemperatureAvgF,TemperatureLowF,DewpointHighF,DewpointAvgF,DewpointLowF,HumidityHigh,HumidityAvg,HumidityLow,PressureMaxIn,PressureMinIn,WindSpeedMaxMPH,WindSpeedAvgMPH,GustSpeedMaxMPH,PrecipitationSumIn
2013-1-1,35.5,16.3,2.5,23.2,9.5,-1.8,84,75,56,30.26,30.06,7,2,7,0.00
2013-1-2,35.8,25.3,11.5,28.1,19.4,6.8,81,78,73,30.19,30.00,9,3,9,0.00
2013-1-3,30.2,24.0,13.1,24.3,17.7,8.6,83,77,68,30.38,30.19,5,2,5,0.00
2013-1-4,42.1,22.5,12.8,26.9,14.9,8.1,84,73,48,30.27,30.09,7,3,7,0.00
2013-1-5,39.1,24.1,16.2,28.5,17.5,10.8,83,76,59,30.18,29.97,9,3,9,0.00
2013-1-6,48.8,26.0,10.3,32.4,18.2,5.8,84,73,49,30.27,30.06,10,3,10,0.00
2013-1-7,45.2,31.5,16.9,33.1,23.8,12.6,83,74,60,30.06,29.91,16,4,16,0.00
2013-1-8,50.8,28.7,13.9,39.3,22.2,9.6,84,77,58,30.10,29.81,10,2,10,0.00
2013-1-9,51.1,34.7,22.3,38.2,26.9,17.1,82,74,53,30.39,30.10,7,1,7,0.00
2013-1-10,37.8,34.1,27.9,32.1,28.4,22.2,82,80,68,30.28,29.65,10,1,10,0.05
2013-1-11,49.0,38.4,24.8,42.3,32.7,18.0,82,80,74,29.75,29.36,14,4,14,0.00
2013-1-12,24.8,19.0,11.7,18.1,10.8,5.8,77,70,60,30.11,29.75,9,3,10,0.00
2013-1-13,21.2,14.0,6.5,10.4,5.9,1.6,81,70,55,30.29,30.09,6,2,6,0.00
2013-1-14,40.3,18.4,6.1,25.9,9.2,0.9,82,68,47,30.40,30.28,5,1,5,0.00
2013-1-15,42.7,23.6,10.4,25.4,15.2,5.1,81,71,48,30.30,30.00,8,3,8,0.00
2013-1-16,49.7,35.1,19.4,35.7,26.3,14.2,80,71,56,30.21,29.88,8,3,8,0.00
2013-1-17,42.5,32.1,27.7,34.0,26.2,22.6,82,79,70,30.42,30.21,5,1,5,0.00
2013-1-18,50.4,38.7,29.3,36.0,29.7,23.9,80,70,56,30.23,29.86,14,5,14,0.00
2013-1-19,52.9,39.4,24.1,34.9,27.7,15.7,78,64,47,30.30,29.84,8,3,8,0.00
2013-1-20,24.5,19.1,13.0,16.3,10.3,6.1,78,68,57,30.36,30.26,6,1,6,0.00
2013-1-21,15.7,13.3,9.5,10.4,2.5,-1.8,79,62,48,30.40,30.29,5,1,5,0.00
2013-1-22,28.8,17.6,11.9,16.2,9.0,2.2,80,69,55,30.32,30.18,7,2,7,0.00
2013-1-23,31.5,20.0,12.1,21.2,12.5,4.9,80,73,62,30.44,30.10,9,2,9,0.00
2013-1-24,19.8,11.8,3.2,8.3,1.6,-3.8,76,64,50,30.48,30.12,11,3,11,0.00
2013-1-25,51.1,32.0,14.8,28.7,18.9,5.6,78,60,38,30.19,30.06,5,1,5,0.00
2013-1-26,55.6,34.2,17.3,31.5,22.6,12.2,82,65,33,30.20,29.95,14,3,14,0.00
2013-1-27,42.1,37.8,34.4,35.7,31.5,27.6,80,78,66,29.95,29.66,9,2,9,0.01
2013-1-28,43.0,37.4,32.8,36.7,31.7,27.5,82,80,79,29.83,29.55,8,1,8,0.00
2013-1-29,38.2,33.0,29.9,32.6,27.4,24.1,80,80,78,29.68,29.57,7,2,7,0.00
2013-1-30,29.9,21.3,14.0,24.1,15.3,8.3,81,78,69,29.91,29.63,5,2,5,0.00
2013-1-31,16.2,9.2,0.4,11.2,1.4,-6.1,80,71,60,30.38,29.90,9,2,9,0.00
2013-2-1,30.6,17.3,1.4,21.2,9.8,-5.0,78,73,64,30.37,30.01,15,4,15,0.00
2013-2-2,43.2,33.7,24.8,33.0,26.1,18.8,78,74,65,30.16,30.00,8,2,8,0.00
2013-2-3,51.8,36.0,21.6,36.7,26.6,15.5,78,69,47,30.18,29.76,10,4,10,0.00
2013-2-4,38.0,27.8,23.4,29.4,21.3,17.3,79,76,71,30.00,29.74,11,3,11,0.00
2013-2-5,51.3,37.8,26.1,35.2,26.7,20.0,78,65,44,30.03,29.80,8,2,8,0.00
2013-2-6,56.7,42.1,30.2,42.5,32.5,23.6,76,69,58,30.03,29.79,16,4,16,0.00
2013-2-7,39.4,33.1,29.0,31.6,26.3,22.3,77,76,74,30.21,29.86,6,2,6,0.00
2013-2-8,35.6,29.6,25.9,27.8,23.2,20.0,78,77,73,30.29,30.08,12,3,12,0.00
2013-2-9,52.9,39.6,27.7,41.4,31.4,21.6,78,73,63,30.09,29.61,14,4,14,0.00
2013-2-10,42.3,36.5,31.3,34.6,29.2,23.8,76,75,71,29.82,29.25,18,7,18,0.00
2013-2-11,39.4,31.1,21.6,27.6,22.4,15.8,78,70,58,30.12,29.82,13,3,16,0.00
2013-2-12,51.8,33.7,19.8,34.3,21.8,14.0,78,63,40,30.12,29.88,11,3,11,0.00
2013-2-13,57.2,40.2,24.7,40.8,27.4,18.2,77,62,41,29.89,29.71,9,2,9,0.00
2013-2-14,45.4,36.6,19.8,31.6,25.8,13.1,77,66,43,30.26,29.78,9,3,9,0.00
2013-2-15,36.2,23.9,13.7,24.2,16.2,8.1,79,73,54,30.32,30.24,5,2,5,0.00
2013-2-16,38.7,25.4,12.2,28.1,18.3,7.0,80,75,64,30.30,29.96,11,3,11,0.00
2013-2-17,59.0,39.0,21.1,40.3,28.4,15.2,79,67,44,29.96,29.52,12,2,12,0.00
2013-2-18,43.0,32.0,21.4,33.2,23.7,14.9,77,71,58,30.05,29.52,8,3,8,0.00
2013-2-19,28.1,18.9,9.7,16.6,6.4,0.5,77,60,35,30.33,30.05,6,2,6,0.00
2013-2-20,23.9,15.6,5.8,14.9,7.0,0.4,79,69,56,30.33,30.14,13,4,13,0.00
2013-2-21,23.6,21.6,19.8,17.0,13.9,11.3,79,72,60,30.18,29.81,18,6,18,0.00
2013-2-22,25.2,18.0,6.1,16.6,11.7,1.1,81,76,68,30.01,29.82,4,1,4,0.00
2013-2-23,43.2,23.3,2.0,27.6,15.0,-2.6,81,72,49,29.98,29.79,8,3,8,0.00
2013-2-24,47.9,31.5,18.9,35.6,23.6,13.1,78,73,51,30.04,29.84,6,1,6,0.00
2013-2-25,36.0,29.4,25.4,28.2,22.7,19.2,78,76,72,30.05,29.88,9,2,9,0.00
2013-2-26,31.7,26.8,23.0,24.7,20.5,17.2,79,77,75,29.91,29.78,6,2,6,0.00
2013-2-27,40.0,30.8,24.1,28.1,22.8,17.9,79,72,59,30.08,29.88,7,3,7,0.00
2013-2-28,33.5,28.5,25.0,25.4,21.5,18.5,76,75,71,30.21,30.07,6,2,6,0.00
2013-3-1,32.0,25.6,22.7,22.0,18.3,16.1,77,74,65,30.26,30.19,6,2,6,0.00
2013-3-2,30.8,30.4,29.9,23.1,22.8,22.2,74,73,73,30.06,30.03,4,1,4,0.00
2013-3-3,44.3,33.9,25.6,34.2,26.1,19.2,77,73,65,30.04,29.67,13,4,13,0.00
2013-3-4,47.0,34.2,26.8,34.8,26.7,20.2,78,74,59,30.02,29.61,9,2,11,0.00
2013-3-5,33.8,27.7,18.7,23.9,19.2,12.6,77,70,61,30.35,30.01,13,4,13,0.00
2013-3-6,42.7,29.4,18.5,30.5,20.4,12.7,78,70,51,30.38,30.18,11,3,11,0.00
2013-3-7,54.2,36.3,23.9,34.7,25.7,17.8,78,67,44,30.21,30.03,18,5,18,0.00
2013-3-8,58.0,41.7,25.7,42.2,31.8,19.6,78,69,54,30.13,29.87,18,5,18,0.03
2013-3-9,59.6,45.7,33.1,49.2,37.6,26.5,77,73,68,29.87,29.52,13,3,13,0.03
2013-3-10,33.1,26.2,20.9,26.6,20.4,15.4,79,78,77,29.94,29.69,9,3,9,0.00
2013-3-11,31.9,23.7,15.5,24.5,17.5,10.4,80,77,73,29.99,29.86,5,2,5,0.00
2013-3-12,34.9,29.2,21.4,25.0,21.2,14.5,78,72,65,30.29,29.98,9,3,9,0.00
2013-3-13,40.9,27.2,12.1,29.4,19.3,6.6,79,72,57,30.40,30.19,8,2,8,0.00
2013-3-14,60.8,42.8,28.6,44.4,32.3,21.1,73,67,46,30.19,30.02,9,1,9,0.00
2013-3-15,62.6,47.6,36.2,46.5,36.9,28.4,74,67,51,30.04,29.71,8,2,8,0.00
2013-3-16,40.3,31.2,26.3,32.7,23.9,19.7,76,74,70,30.14,29.83,8,3,8,0.00
2013-3-17,46.1,34.5,24.1,34.4,25.7,17.9,77,70,60,30.11,29.70,14,5,14,0.00
2013-3-18,40.5,34.5,26.3,28.6,22.3,14.1,77,62,43,30.03,29.66,12,4,12,0.00
2013-3-19,52.2,34.3,21.6,33.1,21.0,14.7,76,60,32,30.29,30.02,9,2,9,0.00
2013-3-20,37.6,27.1,16.7,18.3,13.0,7.1,76,57,36,30.37,30.05,5,2,5,0.00
2013-3-21,32.2,26.6,20.9,22.3,17.2,11.1,77,68,60,30.06,29.87,10,4,10,0.00
2013-3-22,34.7,30.4,26.5,25.7,21.8,19.5,76,70,62,30.00,29.93,8,2,8,0.00
2013-3-23,38.2,31.3,28.3,27.9,23.7,21.9,77,73,63,30.07,29.98,10,2,10,0.00
2013-3-24,30.2,26.2,23.4,22.5,19.0,16.2,78,74,65,30.07,30.02,8,3,8,0.00
2013-3-25,31.1,26.2,23.4,22.4,19.4,17.3,78,75,67,30.31,30.06,5,3,5,0.00
2013-3-26,46.6,31.4,16.0,28.0,19.6,9.5,78,63,43,30.33,30.18,7,1,7,0.00
2013-3-27,52.2,38.2,23.8,33.9,26.4,17.3,77,64,45,30.22,30.12,13,4,13,0.00
2013-3-28,59.4,43.6,23.6,37.5,29.1,17.5,78,59,38,30.21,30.10,8,1,8,0.00
2013-3-29,71.3,51.9,28.3,48.3,33.3,21.3,76,52,29,30.18,30.00,13,2,13,0.00
2013-3-30,67.9,55.4,47.5,52.8,43.0,36.6,75,64,43,30.06,29.89,14,2,14,0.27
2013-3-31,59.2,49.1,32.8,40.7,34.0,26.6,78,58,32,30.12,29.92,7,2,7,0.00
2013-4-1,41.0,32.1,22.5,26.6,19.8,13.1,78,62,40,30.30,30.12,7,2,7,0.00
2013-4-2,54.7,37.7,20.5,33.1,22.2,12.5,75,55,34,30.28,30.19,10,1,10,0.00
2013-4-3,60.3,42.7,27.5,32.9,26.1,19.1,73,54,33,30.29,30.17,10,3,10,0.00
2013-4-4,63.7,46.8,26.5,40.7,31.4,19.4,77,57,40,30.19,30.02,7,2,7,0.00
2013-4-5,73.8,52.7,31.5,44.0,33.9,23.9,76,52,30,30.12,29.68,15,4,15,0.00
2013-4-6,72.7,59.7,49.7,45.0,41.0,35.8,69,52,33,29.78,29.58,17,5,17,0.00
2013-4-7,76.3,58.0,39.6,49.0,40.6,31.3,74,55,30,29.82,29.61,10,2,10,0.00
2013-4-8,69.5,64.3,61.2,57.0,54.1,51.6,72,69,65,29.69,29.64,8,4,8,0.00
2013-4-9,61.2,44.1,32.0,52.6,37.4,26.9,81,77,71,29.97,29.53,17,4,17,0.30
2013-4-10,35.3,33.1,30.8,29.4,27.8,25.4,82,80,79,29.95,29.78,15,2,15,0.00
2013-4-11,35.8,31.6,28.4,29.1,25.4,22.8,80,78,75,29.80,29.65,9,4,9,0.00
2013-4-12,44.6,35.9,30.6,32.8,27.4,24.0,78,71,59,30.00,29.73,8,3,8,0.00
2013-4-13,58.9,44.6,25.9,42.2,33.1,20.0,79,65,48,30.01,29.62,17,4,17,0.05
2013-4-14,68.2,52.4,41.9,52.3,39.1,31.1,74,61,43,29.67,29.29,15,5,15,0.00
2013-4-15,47.9,40.1,33.5,32.0,27.8,23.0,72,61,49,30.06,29.67,8,2,8,0.00
2013-4-16,50.8,42.3,33.8,34.2,30.0,25.4,73,62,46,30.20,30.04,17,4,17,0.00
2013-4-17,45.5,39.8,35.3,34.7,32.4,29.1,79,75,64,30.12,29.71,16,4,16,0.11
2013-4-18,36.4,32.8,30.1,29.4,26.6,24.3,80,78,73,29.92,29.69,11,5,11,0.09
2013-4-19,47.3,36.8,27.5,29.9,23.8,18.5,76,61,40,30.08,29.87,9,4,9,0.00
2013-4-20,47.9,36.8,22.0,31.7,24.0,15.8,78,61,39,30.21,30.07,14,4,14,0.00
2013-4-21,70.9,55.4,41.0,47.6,39.1,30.9,72,56,35,30.10,29.95,19,5,19,0.11
2013-4-22,52.0,41.4,31.9,43.3,34.0,25.5,77,75,71,30.19,29.92,8,2,8,0.58
2013-4-23,40.0,32.8,27.0,28.8,24.3,19.5,77,71,61,30.26,30.13,10,3,10,0.00
2013-4-24,60.7,43.6,24.7,37.6,27.9,18.4,77,57,30,30.18,30.01,12,3,12,0.00
2013-4-25,70.9,59.6,31.5,40.8,35.9,23.9,73,44,29,30.21,29.98,19,7,19,0.00
2013-4-26,74.9,59.4,47.5,51.4,43.8,37.7,70,57,39,30.16,29.98,13,6,13,0.00
2013-4-27,85.9,56.0,39.8,56.8,42.9,31.8,73,63,33,30.17,29.92,12,3,12,0.00
2013-4-28,90.2,64.5,46.4,55.3,47.0,37.5,71,56,27,29.93,29.67,21,7,21,0.00
2013-4-29,92.2,69.8,54.0,60.3,50.8,42.8,67,53,25,29.78,29.50,12,3,12,0.00
2013-4-30,78.1,69.0,60.5,58.1,50.4,38.5,59,52,44,29.88,29.48,18,8,18,0.00
2013-5-1,60.7,40.4,32.0,41.3,32.1,25.7,78,72,47,30.39,29.86,24,8,24,0.12
2013-5-2,60.3,41.8,32.0,40.3,30.7,25.7,77,66,41,30.51,30.35,18,5,18,0.04
2013-5-3,60.7,42.8,30.1,38.3,29.8,23.0,76,61,39,30.36,30.02,17,4,17,0.00
2013-5-4,43.7,39.8,36.2,34.8,31.5,28.4,74,72,65,30.12,29.95,18,6,18,0.00
2013-5-5,64.8,48.1,40.7,51.0,38.3,32.3,73,69,60,30.15,30.08,10,3,10,0.00
2013-5-6,89.5,59.8,46.6,60.8,45.2,37.0,69,60,35,30.14,30.01,8,2,8,0.00
2013-5-7,78.3,59.0,44.8,55.4,45.7,35.3,69,62,44,30.05,29.91,14,2,14,0.18
2013-5-8,77.8,62.4,55.6,61.8,49.3,43.7,65,62,58,29.95,29.87,12,4,12,0.00
2013-5-9,74.0,60.3,54.5,58.2,47.2,42.2,64,62,58,29.99,29.83,13,3,13,0.10
2013-5-10,86.9,61.7,48.4,59.8,45.2,36.8,65,56,31,30.09,29.98,11,3,11,0.00
2013-5-11,72.2,56.9,42.7,41.9,33.8,23.9,66,45,19,30.24,30.02,17,4,17,0.00
2013-5-12,86.0,56.0,35.6,41.4,31.1,23.6,67,43,17,30.24,30.07,10,2,10,0.00
2013-5-13,90.2,67.6,47.3,54.5,45.0,35.3,65,47,22,30.08,29.83,22,7,22,0.00
2013-5-14,82.4,67.0,60.1,60.0,51.6,46.7,62,58,38,29.84,29.74,15,5,15,0.00
2013-5-15,98.3,76.0,60.8,53.9,47.2,42.0,53,38,22,29.90,29.76,16,8,17,0.00
2013-5-16,90.7,72.9,56.5,62.3,54.7,44.5,64,54,38,29.86,29.74,12,3,12,0.00
2013-5-17,91.4,75.3,60.8,62.9,57.3,48.3,64,55,37,29.87,29.80,10,5,10,0.00
2013-5-18,88.6,74.0,60.7,69.2,59.5,48.9,65,61,53,29.87,29.69,18,7,18,0.27
2013-5-19,88.7,66.9,58.1,71.0,53.3,45.6,65,62,55,29.76,29.49,13,4,13,0.24
2013-5-20,80.3,65.8,56.0,59.1,50.5,43.8,64,58,40,29.65,29.52,18,8,18,0.00
2013-5-21,64.8,58.5,52.7,49.2,45.6,41.3,65,62,57,29.74,29.62,17,7,17,0.00
2013-5-22,62.8,55.4,49.3,48.4,43.1,37.6,65,63,59,29.97,29.73,13,5,13,0.00
2013-5-23,88.7,63.5,51.5,55.9,45.6,39.7,64,54,30,30.19,29.98,14,5,14,0.00
2013-5-24,58.0,52.8,49.0,43.3,40.4,37.3,65,63,58,30.24,30.19,7,3,7,0.00
2013-5-27,68.8,66.6,64.8,50.0,47.9,46.2,51,51,50,29.74,29.56,22,9,22,0.00
2013-5-28,94.7,73.5,60.7,72.1,54.0,42.9,56,51,46,29.72,29.63,19,3,19,0.00
2013-5-29,79.4,69.0,61.0,55.5,46.9,37.8,50,45,41,29.69,29.49,20,8,20,1.89
2013-5-30,85.7,65.1,58.1,63.1,44.4,35.1,54,47,41,29.62,29.51,16,7,16,0.06
2013-5-31,87.3,69.5,55.1,57.5,46.7,35.6,57,45,25,29.74,29.61,19,7,19,0.00
2013-6-1,69.1,59.7,53.6,51.0,42.6,36.4,57,53,46,30.03,29.68,21,6,21,0.00
2013-6-2,89.3,63.8,48.1,55.7,43.1,31.2,57,48,25,30.11,29.98,13,3,13,0.00
2013-6-3,79.9,64.9,49.5,54.3,45.4,31.2,56,50,39,30.01,29.78,24,8,24,0.00
2013-6-4,65.7,62.2,59.6,48.1,42.0,37.1,53,48,43,29.90,29.83,12,4,12,0.00
2013-6-13,84.6,69.0,56.3,62.5,46.8,31.6,53,45,38,30.11,29.97,10,2,10,0.02
2013-6-14,92.7,74.6,62.5,71.7,48.5,35.1,53,40,30,30.01,29.72,27,7,27,0.00
2013-6-15,90.9,75.3,65.2,69.0,48.1,28.6,52,39,24,29.95,29.80,17,5,17,0.03
2013-6-16,103.7,78.3,65.0,70.9,48.0,25.1,53,36,22,29.99,29.92,11,3,11,0.00
2013-6-17,104.9,80.5,63.2,66.2,54.1,36.5,53,41,27,30.02,29.93,9,2,9,0.00
2013-6-18,98.3,77.3,62.5,65.5,53.3,37.6,53,44,30,30.06,29.95,11,3,11,0.00
2013-6-19,89.8,76.2,63.7,67.3,51.8,32.5,52,43,31,29.99,29.87,17,5,17,0.00
2013-6-20,91.4,79.8,66.2,70.2,54.1,33.9,51,42,29,29.93,29.78,21,9,21,0.00
2013-6-21,98.6,85.9,76.7,72.6,60.6,44.6,53,43,31,29.84,29.75,22,10,22,0.00
2013-6-22,92.9,80.3,67.0,70.0,57.3,35.7,54,46,30,29.99,29.75,25,9,25,0.08
2013-6-23,93.1,75.8,63.7,71.6,49.8,32.7,54,41,29,29.93,29.75,25,5,25,1.10
2013-6-24,93.4,75.8,67.1,67.3,39.0,19.0,43,27,16,29.97,29.68,22,5,22,0.84
2013-6-25,93.8,79.2,70.7,68.4,45.5,29.9,48,31,19,29.78,29.65,18,4,18,0.00
2013-6-26,111.4,86.0,70.6,75.9,50.5,11.3,50,32,5,29.88,29.67,11,2,11,0.00
2013-6-27,102.1,75.8,67.0,77.1,36.1,11.0,48,26,8,30.01,29.87,16,2,16,0.29
2013-6-28,95.4,79.0,68.4,65.0,44.6,13.2,50,32,12,30.00,29.91,13,3,13,0.00
2013-6-29,86.6,73.0,62.6,61.9,47.4,27.9,50,41,27,29.95,29.90,16,4,16,0.00
2013-6-30,91.6,71.2,56.5,63.9,40.0,14.8,50,33,18,30.11,29.95,10,2,12,0.00
2013-7-1,98.5,72.0,52.9,65.3,44.3,20.1,50,38,25,30.18,30.10,11,2,11,0.00
2013-7-2,91.4,70.0,56.5,63.5,39.6,17.4,49,34,18,30.15,30.05,9,1,9,0.00
2013-7-3,100.8,73.0,55.6,66.6,37.8,2.8,49,30,3,30.07,29.94,10,1,10,0.00
2013-7-4,88.9,75.0,60.7,61.9,48.5,25.9,51,40,25,29.98,29.87,18,6,18,0.00
2013-7-5,89.8,77.1,65.7,67.4,52.2,30.2,52,43,26,29.90,29.81,16,7,16,0.00
2013-7-6,90.0,79.7,70.7,69.5,58.6,38.1,53,49,30,29.85,29.77,17,8,17,0.00
2013-7-7,104.8,84.4,73.1,76.6,59.1,42.1,53,43,29,29.91,29.80,19,5,19,0.00
2013-7-8,97.6,82.1,75.2,75.3,49.4,23.5,51,34,15,29.96,29.87,14,3,14,0.02
2013-7-9,114.1,89.4,73.3,80.6,61.9,37.5,50,41,24,29.96,29.83,13,2,13,0.00
2013-7-10,97.6,79.4,67.9,71.3,49.0,27.7,51,36,21,30.09,29.96,13,3,13,0.00
2013-7-11,95.6,76.5,62.3,67.2,49.1,25.6,52,39,24,30.10,29.94,14,4,14,0.00
2013-7-12,97.9,76.2,65.9,73.9,50.4,27.6,50,41,25,29.98,29.88,16,6,16,0.06
2013-7-13,97.6,81.6,69.5,75.1,49.7,17.5,51,34,14,29.95,29.89,19,7,19,0.29
2013-7-14,99.4,79.3,68.8,67.8,49.5,30.4,53,36,25,30.13,29.93,17,5,17,0.00
2013-7-15,100.3,78.0,59.4,73.1,48.4,22.8,51,36,23,30.18,30.09,11,3,11,0.00
2013-7-16,104.0,80.3,66.2,73.1,48.9,16.8,51,35,15,30.24,30.15,11,3,11,0.00
2013-7-17,98.3,81.8,67.5,72.5,47.9,11.0,50,33,10,30.29,30.14,10,2,10,0.00
2013-7-18,98.3,82.8,69.7,72.2,48.7,14.0,50,33,12,30.15,29.92,16,6,16,0.00
2013-7-19,108.4,85.4,72.5,76.1,57.1,34.1,50,39,25,29.95,29.88,11,3,11,0.00
2013-7-20,102.1,78.8,63.7,68.6,46.4,19.1,49,33,15,29.99,29.84,12,3,12,0.00
2013-7-21,104.4,80.7,65.9,74.9,40.3,7.8,48,26,3,29.92,29.76,10,2,10,0.00
2013-7-22,108.4,82.5,65.9,80.7,39.3,7.8,47,23,1,29.85,29.75,13,2,13,0.00
2013-7-23,100.3,75.6,63.2,72.6,33.1,5.8,48,23,1,30.03,29.84,15,3,15,0.14
2013-7-24,102.2,74.8,57.8,71.6,33.0,1.6,47,24,5,30.08,29.97,7,2,7,0.00
2013-7-25,81.4,72.1,65.2,54.3,19.2,7.2,42,13,1,30.04,29.97,12,3,12,0.00
2013-7-26,88.2,72.5,59.6,62.6,32.7,5.5,49,24,1,30.11,29.97,12,3,12,0.00
2013-7-27,92.7,68.4,52.9,58.2,35.9,1.9,49,32,12,30.13,30.00,10,2,10,0.00
2013-7-28,95.6,67.3,47.3,60.7,35.9,-0.1,49,33,8,30.06,29.99,8,1,8,0.24
2013-7-29,64.1,61.6,58.5,31.4,7.9,2.1,30,6,1,30.04,29.98,11,3,11,0.46
2013-7-30,82.4,70.1,62.5,23.3,11.1,5.2,12,2,1,30.11,30.00,6,2,6,0.27
2013-7-31,102.2,75.9,59.4,74.1,26.5,2.8,45,13,1,30.13,30.03,6,1,6,0.00
2013-8-1,91.1,72.2,60.5,66.3,20.1,-18.6,46,9,1,30.09,29.86,18,3,18,0.95
2013-8-2,96.5,75.6,62.5,69.6,22.3,5.2,43,9,1,29.99,29.75,20,2,20,0.04
2013-8-3,85.9,70.5,60.1,62.0,21.6,3.4,45,13,1,30.16,30.00,7,1,7,0.38
2013-8-4,81.0,68.4,58.7,32.7,10.4,2.3,19,3,1,30.16,30.00,8,3,8,0.00
2013-8-5,96.1,73.9,66.8,67.2,15.5,8.6,39,3,1,30.02,29.83,5,1,5,0.00
2013-8-6,100.3,79.0,66.6,73.6,23.2,8.4,43,7,1,29.92,29.80,7,2,7,0.00
2013-8-7,98.5,77.7,64.3,70.8,28.6,6.6,46,14,1,29.98,29.83,10,2,10,0.00
2013-8-8,81.9,70.4,62.5,20.1,11.3,5.2,5,1,1,30.02,29.95,3,1,3,0.00
2013-8-9,96.5,74.6,62.1,69.0,23.5,5.0,46,11,1,30.13,30.00,7,1,7,0.00
2013-8-10,88.4,70.9,54.7,64.9,22.8,-0.7,46,14,1,30.18,30.06,5,1,6,0.00
2013-8-11,94.3,75.2,61.4,68.9,25.1,4.4,45,12,1,30.10,29.98,10,3,10,0.01
2013-8-12,100.3,77.5,64.8,71.6,26.5,6.9,45,12,1,30.06,29.98,6,1,6,0.02
2013-8-13,93.6,72.7,60.3,63.7,26.6,3.5,46,16,1,30.16,30.06,7,2,7,0.00
2013-8-14,76.7,65.8,54.7,43.8,9.5,-0.7,33,4,1,30.16,30.04,5,1,5,0.00
2013-8-15,72.0,64.4,61.2,12.5,6.7,4.2,1,1,1,30.08,30.00,8,3,8,0.03
2013-8-16,78.3,66.7,60.1,49.2,11.1,3.4,38,4,1,30.14,30.07,5,2,5,0.00
2013-8-17,86.9,69.9,59.9,61.8,25.7,3.2,47,18,1,30.16,30.09,7,2,7,0.00
2013-8-18,85.0,67.8,51.1,62.2,22.9,-3.6,47,17,1,30.13,30.03,7,1,7,0.00
2013-8-19,88.4,74.6,63.9,64.3,23.6,6.3,45,11,1,30.06,29.90,9,3,9,0.00
2013-8-20,93.6,78.7,68.4,69.6,27.9,9.8,46,12,1,29.95,29.89,10,4,10,0.00
2013-8-21,95.4,79.4,67.9,71.3,28.3,9.4,47,13,1,29.98,29.91,7,3,7,0.00
2013-8-22,98.6,77.8,67.1,72.9,24.6,8.8,46,10,1,30.08,29.94,8,3,8,0.01
2013-8-23,91.3,78.5,68.2,67.6,28.9,9.6,47,14,1,30.05,29.95,7,2,7,0.00
2013-8-24,94.1,81.0,75.1,71.0,27.9,14.9,48,11,1,30.03,29.97,8,4,8,0.00
2013-8-25,97.9,84.0,72.7,72.9,36.1,13.2,48,17,1,30.09,30.01,8,4,9,0.00
2013-8-26,96.3,84.2,73.1,72.3,41.4,13.4,48,23,1,30.06,29.93,7,4,7,0.00
2013-8-27,103.0,85.1,72.7,71.3,44.1,13.2,50,25,1,29.94,29.88,10,5,10,0.00
2013-8-28,99.0,82.4,68.8,70.4,42.4,10.1,50,26,1,29.99,29.92,6,3,6,0.00
2013-8-29,100.8,82.1,66.6,72.6,33.7,8.4,48,16,1,29.99,29.89,6,1,6,0.00
2013-8-30,109.8,85.3,70.4,81.5,38.2,11.3,48,18,1,29.90,29.83,6,2,6,0.00
2013-8-31,109.8,84.0,70.4,77.5,34.4,11.3,47,15,1,29.90,29.77,7,1,7,0.00
2013-9-1,96.7,77.9,65.9,64.6,32.5,7.8,48,18,1,30.00,29.77,10,2,10,0.06
2013-9-2,99.2,71.6,55.6,63.8,25.4,-0.1,48,16,1,30.10,30.00,9,1,9,0.27
2013-9-3,91.6,70.1,51.1,64.7,28.1,-3.6,48,20,1,30.08,30.00,7,1,7,0.01
2013-9-4,92.5,72.7,59.0,64.1,24.5,2.5,48,14,1,30.14,30.02,4,1,4,0.00
2013-9-5,90.5,75.1,65.7,63.8,29.4,7.7,48,18,1,30.16,30.05,6,2,6,0.00
2013-9-6,95.2,79.5,64.8,70.3,36.1,6.9,49,21,1,30.07,29.88,9,3,9,0.00
2013-9-7,97.6,80.2,71.3,74.5,31.9,12.0,49,16,1,29.91,29.85,9,3,9,0.00
2013-9-8,105.8,81.7,66.4,76.4,32.4,8.3,46,14,1,29.91,29.77,9,2,9,0.00
2013-9-9,101.9,84.4,70.6,64.6,43.8,11.3,49,25,1,29.83,29.77,12,4,12,0.00
2013-9-10,101.5,80.2,68.8,66.6,41.5,10.1,49,27,1,30.04,29.84,10,4,10,0.85
2013-9-11,83.2,73.4,67.1,21.1,13.6,8.8,1,1,1,30.10,30.02,5,1,5,0.07
2013-9-13,85.7,70.4,58.7,57.7,33.2,2.3,47,26,1,30.08,30.05,5,1,5,0.00
2013-9-14,77.0,65.0,52.6,54.9,23.5,-2.5,48,21,1,30.05,29.84,7,2,7,0.00
2013-9-15,69.5,64.3,59.9,10.5,6.6,3.2,1,1,1,30.21,29.84,9,2,9,0.45
2013-9-16,65.9,60.0,54.4,7.8,3.3,-1.1,1,1,1,30.28,30.16,12,4,12,0.04
2013-9-17,74.3,64.2,56.3,14.3,6.5,0.5,1,1,1,30.16,29.85,6,2,6,0.09
2013-9-18,92.3,77.5,66.4,67.8,27.5,8.3,45,13,1,29.86,29.67,11,4,11,0.00
2013-9-19,79.9,70.2,57.6,52.2,16.4,1.4,42,8,1,30.00,29.71,9,3,9,0.15
2013-9-20,87.8,61.6,45.7,54.7,20.1,-7.7,48,19,1,30.07,29.96,6,2,7,0.00
2013-9-21,89.3,62.0,43.9,57.1,20.0,-9.2,50,19,1,30.00,29.83,5,2,5,0.00
2013-9-22,83.7,67.8,54.7,53.7,27.4,-0.7,48,22,1,29.87,29.76,11,4,11,0.00
2013-9-23,80.3,65.1,51.5,53.8,27.3,-3.3,49,25,1,29.81,29.68,11,5,11,0.00
2013-9-24,72.9,63.3,54.7,30.8,7.1,-0.7,23,4,1,29.90,29.67,6,2,6,0.00
2013-9-25,84.2,64.1,47.5,60.6,18.0,-6.3,47,14,1,29.90,29.72,8,2,8,0.00
2013-9-26,90.9,73.4,59.8,61.8,33.4,3.1,48,23,1,29.77,29.69,14,6,14,0.00
2013-9-27,90.2,76.8,67.5,63.6,40.0,9.1,50,29,1,29.79,29.72,10,5,11,0.00
2013-9-28,86.6,64.8,50.4,51.2,28.4,-2.8,50,26,1,30.03,29.67,11,2,11,0.29
2013-9-29,81.5,61.0,44.1,47.1,22.9,-9.1,50,23,1,30.04,29.85,0,0,0,0.00
2013-9-30,84.6,65.8,51.3,52.2,29.2,-3.5,49,26,1,29.87,29.69,0,0,0,0.00
2013-10-1,95.0,69.1,52.7,57.1,31.0,-2.3,49,25,1,29.94,29.75,0,0,0,0.00
2013-10-2,86.4,69.3,52.2,63.5,25.3,-2.8,48,19,1,29.94,29.80,0,0,0,0.00
2013-10-3,84.4,68.5,59.4,53.9,15.4,2.8,37,7,1,29.88,29.70,0,0,0,0.97
2013-10-4,87.5,67.4,52.7,62.6,19.3,3.8,47,13,1,29.86,29.60,0,0,0,0.03
2013-10-5,42.8,42.6,42.1,15.5,14.3,11.2,33,32,28,29.91,29.90,0,0,0,0.00
2013-10-7,84.8,59.3,38.5,43.6,24.4,-13.3,50,27,1,30.05,29.96,0,0,0,0.07
2013-10-8,79.6,63.6,51.5,47.9,39.2,14.6,51,41,23,29.96,29.85,0,0,0,0.00
2013-10-9,82.1,64.7,49.5,53.7,31.1,-4.8,50,30,1,29.95,29.88,0,0,0,0.00
2013-10-10,83.2,66.6,53.5,57.8,25.9,-1.8,50,22,1,29.95,29.76,0,0,0,0.00
2013-10-11,84.8,65.9,52.9,53.9,24.2,2.5,52,21,1,29.89,29.62,0,0,0,0.00
2013-10-12,83.9,57.1,41.4,40.7,24.9,-11.1,52,31,1,30.24,29.88,0,0,0,0.00
2013-10-13,78.8,53.3,34.9,40.0,20.0,-16.2,52,28,1,30.37,30.24,0,0,0,0.00
2013-10-14,57.6,52.8,45.7,37.1,8.2,-7.7,53,15,1,30.24,29.71,0,0,0,0.56
2013-10-15,54.4,47.4,42.8,35.0,0.8,-10.1,48,11,1,30.06,29.79,0,0,0,0.01
2013-10-16,74.7,49.2,39.4,44.1,13.1,-12.6,53,25,1,30.06,29.93,0,0,0,0.00
2013-10-17,49.5,38.8,34.7,25.1,-0.5,-16.4,51,18,1,29.93,29.86,0,0,0,0.00
2013-11-26,17.6,16.2,15.3,4.5,4.1,3.6,60,58,56,30.38,30.37,0,0,0,0.00
2013-11-27,15.3,13.3,11.5,3.4,0.9,-1.2,59,57,55,30.37,30.34,0,0,0,0.00